World > North America > United States > New Jersey

Town Bank, New Jersey Regional Weather

Lat: 38.99N, Lon: 74.95W
Wx Zone: NJZ023
Feedback

Town Bank, NJ Regional Weather

Expires:201909191900;;034560
ASUS41 KPHI 191812
RWRPHI

REGIONAL WEATHER ROUNDUP
NATIONAL WEATHER SERVICE MOUNT HOLLY NJ
200 PM EDT THU SEP 19 2019

NOTE:  "FAIR" INDICATES FEW OR NO CLOUDS BELOW 12,000 FEET WITH NO
SIGNIFICANT WEATHER AND/OR OBSTRUCTIONS TO VISIBILITY.

 * = STATION DOES NOT REPORT PRECIPITATION (E.G. RAIN, SNOW, ETC.) 
        OR FOG.


NJZ015>026-191900-
SOUTHERN NEW JERSEY
  
CITY           SKY/WX    TMP DP  RH WIND       PRES   REMARKS
POMONA         FAIR      67  48  50 E3        30.32F                  
6HR MIN TEMP:  51; 6HR MAX TEMP:  69;                                

WILDWOOD*      FAIR      69  49  48 E13       30.33F                  
MILLVILLE      FAIR      70  45  40 E6        30.32F                  
WRIGHTSTOWN    FAIR      71  44  37 N5        30.32F                  
MOUNT HOLLY    FAIR      69  48  47 N6        30.32F                  
TRENTON        FAIR      66  44  45 S7        30.32F                  
6HR MIN TEMP:  50; 6HR MAX TEMP:  66;                                


$$

SKY/WX - Weather  TMP - Temperature  DP - Dew Point  RH - Relative Humidity
WIND - Wind Direction/Speed PRES - Barometric Pressure VSB - Visibility
WCI - Wind Chill Index E13G22 Wind - East Wind 13 mph/Gusts of 22 mph